{"data":{"norad_id":56874,"intl_designator":"2023-082A","name":"LONGJIANG 3","alt_names":[],"object_type":"PAYLOAD","status":"ACTIVE","operator":null,"country":"PRC","launch_date":"2023-06-09","launch_site_code":"JSC","launch_vehicle":null,"mission":null,"orbit_class":"UNKNOWN","rcs_meters":null,"size_class":null,"mass_kg":null,"dimensions":null,"purposes":[],"wikipedia_slug":null,"has_3d_model":false,"image_url":null,"decayed_at":null,"tle_current":{"epoch":"2026-09-21T23:28:34.016736Z","epoch_age_seconds":72151,"freshness":"FRESH","line1":"1 56874U 23082A   26264.97817149  .00005987  00000+0  18891-3 0  9999","line2":"2 56874  49.1034 269.2196 0006328 103.7735 256.3917 15.34135540184257","mean_motion":15.3413554,"eccentricity":0.0006328,"inclination_deg":49.1034,"raan_deg":269.2196,"arg_perigee_deg":103.7735,"mean_anomaly_deg":256.3917,"bstar":0.00018891,"rev_number":18425,"period_min":93.863935907514,"perigee_km":459.16000279735,"apogee_km":467.81876514891,"semimajor_km":6841.6263839731,"source":"CELESTRAK","updated_at":"2026-09-22T09:00:25.955926Z"}}}